www.pogodaiklimat.ru

Погода и климат >> Архив погоды >> Антарктида >> Дюмон-д`Юрвиль


ПОГОДА на Дюмон-д`Юрвиле

  • Прогноз погоды на Дюмон-д`Юрвиле
  • Монитор погоды на Дюмон-д`Юрвиле

АРХИВ ПОГОДЫ на Дюмон-д`Юрвиле

Время (UTC), дата Ветер
(напр.,м/с)
 
Видим.   Явления Облачность Т
(С)
Тd
(С)
f
(%)
Тe
(С)
Тes
(С)
Комфортность P
(гПа)
Po
(гПа)
Тmin
(С)
Tmax
(С)
R
(мм)
R24
(мм)
S
(см)
09 11.02 В 16-25
{33}
15 км позёмок 10/10 1000 м
[Sc]
-3.3 -11.1 55 -14 -14 985.3 980.0
12 11.02 ЮВ 20-29
{34}
н/о н/о -4.8 -11.2 61 -17 -17 984.9 979.5 -5.6 -2.1
15 11.02 ЮВ 22-31
{34}
н/о н/о -5.5 -12.7 57 -18 -18 984.4 979.0
18 11.02 ЮВ 23-32
{37}
н/о н/о -6.7 -13.0 61 -20 -20 984.2 978.8
21 11.02 ЮВ 24-33
{37}
10 км 10/10 1000 м
[]
-6.3 -13.0 59 -20 -20 984.3 978.9
00 12.02 В 17-27
{37}
10 км 10/10 1200 м
[Sc]
-4.7 -11.3 60 -16 -16 986.2 980.8 -7.8 -4.4
03 12.02 В 14-22
{27}
10 км 10/10 400 м
[Frnb]
-3.6 -10.0 61 -14 -14 986.7 981.3
06 12.02 В 14-22
{27}
9000 м 10/10 1080 м
[Sc]
-2.8 -8.9 63 -13 -13 987.2 981.9
09 12.02 В 14-22
{25}
4000 м слаб. снег 10/10 300 м
[Frnb]
-3.0 -8.7 65 -13 -13 988.2 982.9
12 12.02 В 15-23
{25}
н/о н/о -3.1 -8.0 69 -14 -14 989.7 984.3 -4.8 -2.1
15 12.02 В 14-25
{25}
н/о н/о -2.4 -8.3 64 -12 -12 989.9 984.6
18 12.02 В 16-24
{26}
н/о н/о -2.8 -8.9 63 -13 -13 990.4 985.0
21 12.02 В 15-25
{27}
15 км 10/10 1300 м
[]
-2.5 -8.4 64 -13 -13 991.1 985.7
00 13.02 ЮВ 21-32
{35}
18 км 9/8 900 м
[Sc Ci]
-2.8 -8.9 63 -14 -14 989.3 984.0 -3.2 -1.9
03 13.02 ЮВ 30-44
{44}
3000 м позёмок 9/4 1200 м
[Sc As trans]
-2.9 -9.0 63 -16 -16 984.8 979.5
06 13.02 ЮВ 31-44
{47}
2000 м позёмок 10/3 1380 м
[Sc As trans]
-3.4 -8.8 66 -17 -17 978.9 973.6
09 13.02 ЮВ 34-47
{51}
200 м слаб. снег {метель} 10/10 30 м
[Frnb]
-4.3 -6.3 86 -19 -19 973.0 967.7
12 13.02 ЮВ 31-44
{51}
н/о н/о -4.9 -6.0 92 -19 -19 964.7 959.4 -5.0 -2.3
15 13.02 В 30-45
{49}
н/о н/о -2.3 -3.3 93 -16 -16 957.9 952.7
18 13.02 В 26-38
{51}
н/о н/о -1.5 -2.5 93 -14 -14 957.0 951.9
21 13.02 ЮВ 22-36
{42}
10 км 10/10 1200 м
[]
+0.3 -4.9 68 -10 -10 957.2 952.1
00 14.02 В 19-32
{42}
н/о н/о +1.7 -3.6 68 -8 -8 958.4 953.3 -5.0 +1.8
03 14.02 В 16-28
{32}
6000 м слаб. снег 10/10 1200 м
[Sc]
+2.8 -3.6 63 -6 -6 959.6 954.5
06 14.02 В 14-23
{34}
10 км {снег} 10/10 900 м
[Sc]
+2.5 -2.6 69 -6 -6 961.4 956.3
09 14.02 В 15-23
{29}
4000 м слаб. дождь со снегом 10/10 800 м
[Sc]
+1.4 -1.5 81 -8 -8 966.3 961.2
12 14.02 В 15-25
{29}
н/о н/о +2.0 -2.2 74 -7 -7 971.4 966.2 +1.0 +3.3
15 14.02 В 14-22
{28}
н/о н/о +2.2 -2.5 71 -6 -6 975.8 970.6
18 14.02 В 11-17
{28}
н/о н/о +2.2 -3.9 64 -5 -5 979.4 974.2
21 14.02 В 9-14
{18}
20 км 8/8 1500 м
[]
+2.0 -3.9 65 -5 -5 981.5 976.3
00 15.02 В 6
{22}
15 км 10/10 1000 м
[Sc]
+1.9 -3.4 68 -4 -4 984.3 979.1 +1.3 +3.6
03 15.02 В 3
{16}
15 км 10/10 1000 м
[Sc]
+1.8 -2.0 76 -2 -2 986.6 981.4
06 15.02 В 4
{16}
20 км слаб. снег 6/3 1200 м
[Sc Ac lent Ci fib]
+1.8 -1.8 77 -3 -2 989.0 983.7
09 15.02 Ю 2 20 км {снег} 10/10 1200 м
[Sc]
+1.5 -2.6 74 -1 -1 991.6 986.3
12 15.02 З 2 н/о н/о +0.7 -2.7 78 -3 -3 994.1 988.8 +0.7 +3.3
15 15.02 В 4 н/о н/о +1.2 -3.7 70 -3 -3 996.1 990.8
18 15.02 В 7 н/о н/о +0.7 -5.3 64 -6 -6 998.1 992.8
21 15.02 В 3 25 км 9/9 1200 м
[]
+0.7 -4.7 67 -4 -3 1001.0 995.7
00 16.02 З 2 20 км 10/10 1200 м
[Sc]
+2.3 -4.7 60 0 0 1002.6 997.3 +0.1 +2.4
03 16.02 З 2 25 км 1/0
[Ac lent]
+4.1 -3.9 56 +2 +10 опасность
простуды
1003.0 997.7
06 16.02 З 2 н/о н/о +3.1 -3.1 64 0 0 1002.5 997.2
09 16.02 В 4 25 км 1/0
[Ac lent Ci fib]
+2.5 -4.5 60 -2 -2 1002.1 996.8
12 16.02 В 4 н/о н/о +1.2 -8.4 49 -3 -3 1002.1 996.8 +0.9 +4.9
15 16.02 В 7
{22}
н/о н/о +0.8 -10.4 43 -5 -5 1001.2 995.9
18 16.02 В 6
{23}
н/о н/о +0.1 -10.7 44 -6 -6 1000.6 995.2
21 16.02 В 7 30 км 4/0
[]
+0.2 -10.4 45 -6 -6 1000.6 995.2
00 17.02 В 4 30 км 6/0
[Ci]
+1.6 -9.4 44 -3 0 1000.0 994.7 -0.3 +2.2
03 17.02 В 3 30 км 5/0
[Ci fib]
+1.6 -8.5 47 -2 +4 999.3 994.0
06 17.02 В 2 30 км 5/0
[Ci fib]
+1.9 -9.7 42 0 +4 998.2 992.9
09 17.02 В 8-13
{19}
40 км 4/0
[Ci fib]
-0.2 -11.9 41 -7 -7 997.5 992.2
12 17.02 ЮВ 13-23
{24}
н/о н/о -3.4 -14.8 41 -13 -13 997.5 992.1 -3.6 +2.8
15 17.02 ЮВ 16-26
{26}
н/о н/о -5.2 -15.9 43 -16 -16 998.0 992.6
18 17.02 ЮВ 15-26
{30}
н/о н/о -7.8 -16.4 50 -19 -19 998.8 993.3
21 17.02 ЮВ 19-28
{28}
30 км 5/0
[]
-8.6 -17.2 50 -21 -21 998.9 993.4
00 18.02 ЮВ 22-30
{32}
25 км 9/9 1080 м
[Sc]
-7.6 -14.9 56 -21 -21 997.5 992.0 -9.2 -2.8
03 18.02 ЮВ 19-27
{34}
20 км 9/9 1380 м
[Sc]
-5.4 -13.0 55 -17 -17 997.0 991.6
06 18.02 ЮВ 20-31
{34}
20 км 10/10 1200 м
[Sc]
-5.1 -12.8 55 -17 -17 996.3 990.9

 

Местоположение метеостанции Дюмон-д`Юрвиль (Антарктида): широта -66.66 долгота 140.01 высота над уровнем моря 43 м.

В архиве по умолчанию представлена погода на Дюмон-д`Юрвиле за последнюю неделю. Архивные данные за месяц целиком и за предыдущие месяцы, начиная с января 2011 года, Вы можете получить, выбрав интересующий диапазон дат из раскрывающегося списка и нажав кнопку "Ввод!".


*Определитесь, кто Вы:
робот инопланетянин человек

Внимание! Время в таблицах - всемирное. Для получения местного времени необходимо прибавить поправку, которая равна 0 ч.

Смотрите также архив погоды в соседних городах и на ближайших метеорологических станциях:

Погода на D-47 (Антарктида) (98 км)
Погода в Sitry Point (Антарктида) (651 км)
Погода на Mid Point (Антарктида) (691 км)
Погода на Ленинградской (Антарктида) (860 км)
Погода на Dome C II (Антарктида) (1110 км)
Погода на Острове Маккуори (Австралия) (1688 км)

Пояснения к столбцам:

Ветер - указаны скорость ветра в м/с - средняя за 10 мин, порывы в срок и между сроками (в фигурных скобках) и направление, откуда дует ветер: С - северный, СВ - северо-восточный, В - восточный, ЮВ - юго-восточный, Ю - южный, ЮЗ - юго-западный, З - западный, СЗ - северо-западный.
Видимость - горизонтальная дальность видимости в метрах или километрах. При видимости от 1 до 10 км при отсутствии осадков обычно наблюдается дымка, при ухудшении видимости до 1 км и менее - туман. В сухую погоду видимость может ухудшаться дымом, пылью или мглою.
Явления - указаны атмосферные явления, наблюдавшиеся в срок или в последний час перед сроком; фигурными скобками обозначены явления, наблюдавшиеся между сроками (за 1-3 часа до срока); квадратными скобками обозначены град или гололедные отложения с указанием их диаметра в мм.
Облачность - указаны через наклонную черту общая и нижняя облачность в баллах и высота нижней границы облаков в метрах; квадратными скобками обозначены формы облаков: Ci - перистые, Cs - перисто-слоистые, Cc - перисто-кучевые, Ac - высококучевые, As - высокослоистые, Sc - слоисто-кучевые, Ns - слоисто-дождевые, Cu - кучевые, Cb - кучево-дождевые. Подробнее классификацию облаков см. в Атласе облаков (PDF).
T - Температура воздуха - температура, измеренная на высоте 2 м над землей.
Td - Температура точки росы - температура, при понижении до которой содержащийся в воздухе водяной пар достигнет насыщения.
f - Относительная влажность воздуха - влажноcть воздуха, измеренная на высоте 2 м над землей.
Te - Эффективная температура - температура, которую ощущает одетый по сезону человек в тени. Характеристика душности погоды. При расчете учитывается влияние влажности воздуха и скорости ветра на теплоощущения человека.
Tes - Эффективная температура на солнце - температура, которую ощущает человек, с поправкой на солнечный нагрев. Характеристика знойности погоды. Зависит от высоты солнца над горизонтом, облачности и скорости ветра. Ночью, в пасмурную погоду, а также при ветре 12 м/с и более поправка равна нулю.
P - Атмосферное давление - приведенное к уровню моря атмосферное давление.
Po - Атмосферное давление - измеренное на уровне метеостанции атмосферное давление.
Tmin - Минимальная температура - минимум температуры воздуха на высоте 2 м над землей.
Tmax - Максимальная температура - максимум температуры воздуха на высоте 2 м над землей.
R - Количество осадков - Количество выпавших осадков за период времени, мм. При наведении курсора мыши на число - период времени, за который выпало указанное количество осадков.
R24 - Количество осадков - Количество выпавших осадков за 24 часа, мм.
S - Снежный покров - Высота снежного покрова, см. При наведении курсора мыши на число - состояние снежного покрова и степень покрытия местности в баллах.